FREGAT DEB, 47337

Orbit data source: Space-Track

FREGAT DEB, 47337 is space debris in LEO originally from a launch on Mon, 18 Jul 2011 UTC launched from the Tyuratam Missile And Space Complex (TTMTR). Debris objects in space refer to the collection of defunct objects orbiting the Earth. Examples of debris include non-operational satellites, rocket bodies, and fragments generated from explosions, collisions, or faulty payload assembly.

Loading next visibility...
Identifier
47337, 2011-037NU
Orbit
LEO
Country
Flag of CISCIS
Related business
Manufacturer
Lavochkin
Mission
Spacecraft
Bus & Motor
Unknown
Mass
Unknown
Launch date (UTC)
2011-07-18 (14 years ago)
Launch vehicle
Unknown
Launch site
Tyuratam Missile And Space Complex (TTMTR)
Object type
Payload
Rocket body
Debris
Shape & HBR
Unknown shape, 0.1 m
Radar Cross Section
Small (<0.1 m²)

Expand to show TLE details & history
Last TLE update: 2 days ago

TLE from 2 days ago
0 FREGAT DEB
1 47337U 11037NU  25347.95673433  .00023911  00000-0  36432-1 0  9992
2 47337  51.4921  74.8656 1412474 190.9286 165.7537 11.57008858202788
Epoch: 2025-12-13T22:57Z
TLE epoch observation values (Epoch: 2025-12-13T22:57:41.846Z)
Latitude
0.00001°
Longitude
7.56469°
Altitude
3,018.535 km
Speed
6.049 km/s
True Right ascension
04h 59m 27s
True Declination
0° 00' 00"
Sunlit
Object was in full shadow at epoch
Visualization orbit readout
Latitude
Unknown
Longitude
Unknown
Altitude
Unknown
Speed
Unknown
Apparent Right ascension
Unknown
Apparent Declination
Unknown
Sunlit
N/A
Visualization observer readout
Local Sidereal Time
08:41:35
Azimuth
Unknown
Elevation
Unknown
Doppler factor
Unknown
Orbital elements
Apogee altitude
3,046.132 km
Perigee altitude
713.328 km
Semi-major axis
8,257.867 km
Eccentricity
0.14125
Inclination
51.4921°
RAAN
74.8656°
Arg. of periapsis
190.9286°
True anomaly
169.15031°
Mean anomaly
165.7537°
Eccentric anomaly
167.50468°
Mean motion
2.89229 °/min
Orbital period
124.47 mins
BSTAR
0.036432
Loading maneuver chart data...
Computing Atmospheric mass density...
Loading historical data...
Loading historical data...
Loading historical data...
Loading historical data...
Loading historical data...
Loading historical data...
Loading historical data...

Documentation

Showing up to 5 results
|